Zurück zum Katalog

SL-3 R/B

AktivSSO
NORAD 21689·ROCKET BODY·🇷🇺 Russia

Gestartet Aug 29, 1991 von Baikonur Cosmodrome

Loading…

Nächste Überflüge (nächste 24 Stunden)

TLE

AktuellSource: Space-Track

Epoche: Sep 14, 2026, 20:25 UTC

1 21689U 91061B   26257.85111526 -.00000303  00000-0 -16599-3 0  9995
2 21689  99.4369 113.3115 0024991 192.9087 167.1441 14.02297038792620

Verfolge SL-3 R/B in Echtzeit mit AllMySat

Download on the App Store